Time,TemperatureF,DewpointF,PressureIn,WindDirection,WindDirectionDegrees,WindSpeedMPH,WindSpeedGustMPH,Humidity,HourlyPrecipIn,Conditions,Clouds,dailyrainin,SoftwareType,DateUTC
2013-09-14 00:00:00,49.0,43.4,30.14,East,93,3.0,8.0,81,0.00,,,0.00,Wunderground v.1.15,2013-09-14 05:00:00,
2013-09-14 00:06:00,49.1,43.8,30.14,NE,54,3.0,8.0,82,0.00,,,0.00,Wunderground v.1.15,2013-09-14 05:06:00,
2013-09-14 00:08:00,49.1,43.8,30.14,ENE,61,3.0,8.0,82,0.00,,,0.00,Wunderground v.1.15,2013-09-14 05:08:00,
2013-09-14 00:12:00,49.2,43.9,30.14,ENE,58,2.0,8.0,82,0.00,,,0.00,Wunderground v.1.15,2013-09-14 05:12:00,
2013-09-14 00:14:00,49.3,44.0,30.14,ENE,58,2.0,8.0,82,0.00,,,0.00,Wunderground v.1.15,2013-09-14 05:14:00,
2013-09-14 00:16:00,49.3,44.0,30.14,ENE,59,3.0,8.0,82,0.00,,,0.00,Wunderground v.1.15,2013-09-14 05:16:00,
2013-09-14 00:18:00,49.2,43.9,30.14,ENE,63,3.0,8.0,82,0.00,,,0.00,Wunderground v.1.15,2013-09-14 05:18:00,
2013-09-14 00:22:00,49.3,44.0,30.14,ENE,63,3.0,8.0,82,0.00,,,0.00,Wunderground v.1.15,2013-09-14 05:22:00,
2013-09-14 00:24:00,49.4,44.1,30.14,ENE,58,4.0,8.0,82,0.00,,,0.00,Wunderground v.1.15,2013-09-14 05:24:00,
2013-09-14 00:26:00,49.5,44.2,30.14,ENE,58,4.0,8.0,82,0.00,,,0.00,Wunderground v.1.15,2013-09-14 05:26:00,
2013-09-14 00:28:00,49.5,44.2,30.14,NE,56,4.0,8.0,82,0.00,,,0.00,Wunderground v.1.15,2013-09-14 05:28:00,
2013-09-14 00:32:00,49.4,44.1,30.14,ENE,74,3.0,8.0,82,0.00,,,0.00,Wunderground v.1.15,2013-09-14 05:32:00,
2013-09-14 00:34:00,49.3,44.0,30.14,East,82,2.0,8.0,82,0.00,,,0.00,Wunderground v.1.15,2013-09-14 05:34:00,
2013-09-14 00:38:00,49.0,44.1,30.14,ENE,77,2.0,8.0,83,0.00,,,0.00,Wunderground v.1.15,2013-09-14 05:38:00,
2013-09-14 00:40:00,48.9,44.0,30.14,ENE,76,1.0,8.0,83,0.00,,,0.00,Wunderground v.1.15,2013-09-14 05:40:00,
2013-09-14 00:42:00,48.8,43.9,30.14,ENE,70,1.0,8.0,83,0.00,,,0.00,Wunderground v.1.15,2013-09-14 05:42:00,
2013-09-14 00:44:00,48.8,43.9,30.14,ENE,67,2.0,8.0,83,0.00,,,0.00,Wunderground v.1.15,2013-09-14 05:44:00,
2013-09-14 00:48:00,48.9,44.3,30.14,ENE,61,2.0,8.0,84,0.00,,,0.00,Wunderground v.1.15,2013-09-14 05:48:00,
2013-09-14 00:50:00,48.9,44.3,30.14,ENE,65,3.0,8.0,84,0.00,,,0.00,Wunderground v.1.15,2013-09-14 05:50:00,
2013-09-14 00:54:00,48.8,44.2,30.14,ENE,63,3.0,8.0,84,0.00,,,0.00,Wunderground v.1.15,2013-09-14 05:54:00,
2013-09-14 00:56:00,48.8,44.2,30.14,ENE,65,4.0,8.0,84,0.00,,,0.00,Wunderground v.1.15,2013-09-14 05:56:00,
2013-09-14 01:00:00,48.9,44.6,30.14,NE,56,4.0,4.0,85,0.00,,,0.00,Wunderground v.1.15,2013-09-14 06:00:00,
2013-09-14 01:02:00,49.0,44.7,30.14,ENE,60,4.0,8.0,85,0.00,,,0.00,Wunderground v.1.15,2013-09-14 06:02:00,
2013-09-14 01:04:00,49.1,44.8,30.14,ENE,57,3.0,8.0,85,0.00,,,0.00,Wunderground v.1.15,2013-09-14 06:04:00,
2013-09-14 01:08:00,49.3,45.0,30.14,ENE,58,3.0,8.0,85,0.00,,,0.00,Wunderground v.1.15,2013-09-14 06:08:00,
2013-09-14 01:10:00,49.3,44.7,30.14,ENE,57,3.0,8.0,84,0.00,,,0.00,Wunderground v.1.15,2013-09-14 06:10:00,
2013-09-14 01:12:00,49.2,44.6,30.14,ENE,57,3.0,8.0,84,0.00,,,0.00,Wunderground v.1.15,2013-09-14 06:12:00,
2013-09-14 01:18:00,49.3,45.0,30.14,ENE,63,4.0,8.0,85,0.00,,,0.00,Wunderground v.1.15,2013-09-14 06:18:00,
2013-09-14 01:20:00,49.2,44.9,30.14,NE,56,4.0,4.0,85,0.00,,,0.00,Wunderground v.1.15,2013-09-14 06:20:00,
2013-09-14 01:24:00,49.2,44.9,30.14,NE,52,3.0,8.0,85,0.00,,,0.00,Wunderground v.1.15,2013-09-14 06:24:00,
2013-09-14 01:26:00,49.3,45.0,30.14,NE,44,3.0,8.0,85,0.00,,,0.00,Wunderground v.1.15,2013-09-14 06:26:00,
2013-09-14 01:30:00,49.2,44.9,30.14,NE,51,3.0,8.0,85,0.00,,,0.00,Wunderground v.1.15,2013-09-14 06:30:00,
2013-09-14 01:32:00,49.2,44.9,30.14,NE,52,3.0,8.0,85,0.00,,,0.00,Wunderground v.1.15,2013-09-14 06:32:00,
2013-09-14 01:34:00,49.2,44.9,30.14,NE,49,3.0,8.0,85,0.00,,,0.00,Wunderground v.1.15,2013-09-14 06:34:00,
2013-09-14 01:38:00,49.1,44.8,30.14,ENE,60,3.0,8.0,85,0.00,,,0.00,Wunderground v.1.15,2013-09-14 06:38:00,
2013-09-14 01:40:00,49.0,44.7,30.14,NE,56,4.0,8.0,85,0.00,,,0.00,Wunderground v.1.15,2013-09-14 06:40:00,
2013-09-14 01:42:00,48.9,44.6,30.14,ENE,60,4.0,8.0,85,0.00,,,0.00,Wunderground v.1.15,2013-09-14 06:42:00,
2013-09-14 01:44:00,48.9,44.9,30.14,ENE,63,4.0,8.0,86,0.00,,,0.00,Wunderground v.1.15,2013-09-14 06:44:00,
2013-09-14 01:46:00,48.8,44.5,30.14,ENE,70,3.0,8.0,85,0.00,,,0.00,Wunderground v.1.15,2013-09-14 06:46:00,
2013-09-14 01:48:00,48.6,44.3,30.14,ENE,72,3.0,8.0,85,0.00,,,0.00,Wunderground v.1.15,2013-09-14 06:48:00,
2013-09-14 01:50:00,48.5,44.2,30.14,ENE,61,2.0,8.0,85,0.00,,,0.00,Wunderground v.1.15,2013-09-14 06:50:00,
2013-09-14 01:54:00,48.5,44.8,30.14,ENE,58,2.0,8.0,87,0.00,,,0.00,Wunderground v.1.15,2013-09-14 06:54:00,
2013-09-14 01:58:00,48.7,44.7,30.14,ENE,60,3.0,8.0,86,0.00,,,0.00,Wunderground v.1.15,2013-09-14 06:58:00,
2013-09-14 02:00:00,48.6,44.6,30.14,ENE,58,3.0,8.0,86,0.00,,,0.00,Wunderground v.1.15,2013-09-14 07:00:00,
2013-09-14 02:02:00,48.6,44.6,30.14,ENE,65,3.0,8.0,86,0.00,,,0.00,Wunderground v.1.15,2013-09-14 07:02:00,
2013-09-14 02:06:00,48.4,44.4,30.14,ENE,74,2.0,8.0,86,0.00,,,0.00,Wunderground v.1.15,2013-09-14 07:06:00,
2013-09-14 02:12:00,48.3,44.9,30.14,ENE,75,1.0,8.0,88,0.00,,,0.00,Wunderground v.1.15,2013-09-14 07:12:00,
2013-09-14 02:16:00,48.3,44.9,30.14,ENE,63,1.0,8.0,88,0.00,,,0.00,Wunderground v.1.15,2013-09-14 07:16:00,
2013-09-14 02:18:00,48.3,44.6,30.14,ENE,63,2.0,8.0,87,0.00,,,0.00,Wunderground v.1.15,2013-09-14 07:18:00,
2013-09-14 02:20:00,48.3,44.9,30.14,ENE,65,2.0,8.0,88,0.00,,,0.00,Wunderground v.1.15,2013-09-14 07:20:00,
2013-09-14 02:22:00,48.3,44.9,30.14,ENE,70,2.0,8.0,88,0.00,,,0.00,Wunderground v.1.15,2013-09-14 07:22:00,
2013-09-14 02:24:00,48.3,44.9,30.14,ENE,71,2.0,8.0,88,0.00,,,0.00,Wunderground v.1.15,2013-09-14 07:24:00,
2013-09-14 02:28:00,48.4,45.0,30.14,ENE,70,2.0,8.0,88,0.00,,,0.00,Wunderground v.1.15,2013-09-14 07:28:00,
2013-09-14 02:30:00,48.4,45.0,30.14,ENE,65,2.0,8.0,88,0.00,,,0.00,Wunderground v.1.15,2013-09-14 07:30:00,
2013-09-14 02:32:00,48.5,45.1,30.14,ENE,64,2.0,8.0,88,0.00,,,0.00,Wunderground v.1.15,2013-09-14 07:32:00,
2013-09-14 02:34:00,48.5,45.1,30.14,ENE,63,2.0,8.0,88,0.00,,,0.00,Wunderground v.1.15,2013-09-14 07:34:00,
2013-09-14 02:36:00,48.5,45.1,30.14,ENE,64,2.0,8.0,88,0.00,,,0.00,Wunderground v.1.15,2013-09-14 07:36:00,
2013-09-14 02:40:00,48.4,45.0,30.14,ENE,63,2.0,8.0,88,0.00,,,0.00,Wunderground v.1.15,2013-09-14 07:40:00,
2013-09-14 02:42:00,48.4,45.0,30.14,NE,53,2.0,8.0,88,0.00,,,0.00,Wunderground v.1.15,2013-09-14 07:42:00,
2013-09-14 02:46:00,48.6,45.5,30.14,NE,51,2.0,8.0,89,0.00,,,0.00,Wunderground v.1.15,2013-09-14 07:46:00,
2013-09-14 02:52:00,48.4,45.0,30.14,ENE,63,2.0,8.0,88,0.00,,,0.00,Wunderground v.1.15,2013-09-14 07:52:00,
2013-09-14 02:58:00,48.1,45.0,30.14,NE,44,2.0,8.0,89,0.00,,,0.00,Wunderground v.1.15,2013-09-14 07:58:00,
2013-09-14 03:00:00,48.1,45.0,30.14,NE,46,2.0,8.0,89,0.00,,,0.00,Wunderground v.1.15,2013-09-14 08:00:00,
2013-09-14 03:04:00,48.2,45.1,30.14,NE,54,2.0,8.0,89,0.00,,,0.00,Wunderground v.1.15,2013-09-14 08:04:00,
2013-09-14 03:06:00,48.1,44.7,30.13,ENE,64,2.0,8.0,88,0.00,,,0.00,Wunderground v.1.15,2013-09-14 08:06:00,
2013-09-14 03:10:00,48.0,44.6,30.14,East,82,2.0,8.0,88,0.00,,,0.00,Wunderground v.1.15,2013-09-14 08:10:00,
2013-09-14 03:12:00,47.8,44.4,30.14,East,82,2.0,8.0,88,0.00,,,0.00,Wunderground v.1.15,2013-09-14 08:12:00,
2013-09-14 03:14:00,47.7,44.6,30.14,East,79,2.0,8.0,89,0.00,,,0.00,Wunderground v.1.15,2013-09-14 08:14:00,
2013-09-14 03:16:00,47.6,44.5,30.14,East,79,2.0,8.0,89,0.00,,,0.00,Wunderground v.1.15,2013-09-14 08:16:00,
2013-09-14 03:22:00,47.1,44.0,30.13,ENE,75,1.0,8.0,89,0.00,,,0.00,Wunderground v.1.15,2013-09-14 08:22:00,
2013-09-14 03:24:00,47.0,44.2,30.13,ENE,75,1.0,8.0,90,0.00,,,0.00,Wunderground v.1.15,2013-09-14 08:24:00,
2013-09-14 03:28:00,47.2,44.7,30.13,ENE,65,2.0,8.0,91,0.00,,,0.00,Wunderground v.1.15,2013-09-14 08:28:00,
2013-09-14 03:30:00,47.3,44.8,30.14,ENE,65,2.0,8.0,91,0.00,,,0.00,Wunderground v.1.15,2013-09-14 08:30:00,
2013-09-14 03:34:00,47.5,45.0,30.14,ENE,65,2.0,8.0,91,0.00,,,0.00,Wunderground v.1.15,2013-09-14 08:34:00,
2013-09-14 03:36:00,47.4,44.6,30.14,ENE,65,2.0,8.0,90,0.00,,,0.00,Wunderground v.1.15,2013-09-14 08:36:00,
2013-09-14 03:38:00,47.3,44.5,30.14,ENE,65,1.0,8.0,90,0.00,,,0.00,Wunderground v.1.15,2013-09-14 08:38:00,
2013-09-14 03:42:00,47.0,44.2,30.14,ENE,65,1.0,8.0,90,0.00,,,0.00,Wunderground v.1.15,2013-09-14 08:42:00,
2013-09-14 03:46:00,46.7,43.9,30.14,ENE,72,0.0,8.0,90,0.00,,,0.00,Wunderground v.1.15,2013-09-14 08:46:00,
2013-09-14 03:48:00,46.6,43.8,30.14,ENE,72,0.0,8.0,90,0.00,,,0.00,Wunderground v.1.15,2013-09-14 08:48:00,
2013-09-14 03:52:00,46.4,43.6,30.14,ENE,72,0.0,8.0,90,0.00,,,0.00,Wunderground v.1.15,2013-09-14 08:52:00,
2013-09-14 03:54:00,46.3,43.8,30.14,ENE,72,0.0,8.0,91,0.00,,,0.00,Wunderground v.1.15,2013-09-14 08:54:00,
2013-09-14 04:00:00,45.9,43.4,30.14,ENE,72,0.0,8.0,91,0.00,,,0.00,Wunderground v.1.15,2013-09-14 09:00:00,
2013-09-14 04:02:00,45.9,43.7,30.14,ENE,72,0.0,8.0,92,0.00,,,0.00,Wunderground v.1.15,2013-09-14 09:02:00,
2013-09-14 04:08:00,45.7,43.5,30.14,ENE,72,0.0,8.0,92,0.00,,,0.00,Wunderground v.1.15,2013-09-14 09:08:00,
2013-09-14 04:14:00,46.0,44.4,30.14,ENE,72,0.0,8.0,94,0.00,,,0.00,Wunderground v.1.15,2013-09-14 09:14:00,
2013-09-14 04:16:00,46.1,44.2,30.15,ENE,72,0.0,8.0,93,0.00,,,0.00,Wunderground v.1.15,2013-09-14 09:16:00,
2013-09-14 04:18:00,46.2,44.6,30.15,ENE,72,0.0,8.0,94,0.00,,,0.00,Wunderground v.1.15,2013-09-14 09:18:00,
2013-09-14 04:22:00,46.2,44.3,30.14,ENE,72,0.0,8.0,93,0.00,,,0.00,Wunderground v.1.15,2013-09-14 09:22:00,
2013-09-14 04:24:00,46.1,44.5,30.15,ENE,72,0.0,8.0,94,0.00,,,0.00,Wunderground v.1.15,2013-09-14 09:24:00,
2013-09-14 04:28:00,46.0,44.4,30.14,NE,46,0.0,8.0,94,0.00,,,0.00,Wunderground v.1.15,2013-09-14 09:28:00,
2013-09-14 04:30:00,46.0,44.4,30.14,NE,45,0.0,8.0,94,0.00,,,0.00,Wunderground v.1.15,2013-09-14 09:30:00,
2013-09-14 04:34:00,46.0,44.4,30.15,NNE,30,0.0,8.0,94,0.00,,,0.00,Wunderground v.1.15,2013-09-14 09:34:00,
2013-09-14 04:36:00,45.5,43.3,30.15,NNE,29,1.0,8.0,92,0.00,,,0.00,Wunderground v.1.15,2013-09-14 09:36:00,
2013-09-14 04:38:00,45.0,42.5,30.15,NNE,29,1.0,8.0,91,0.00,,,0.00,Wunderground v.1.15,2013-09-14 09:38:00,
2013-09-14 04:40:00,44.8,42.3,30.15,NNE,29,1.0,8.0,91,0.00,,,0.00,Wunderground v.1.15,2013-09-14 09:40:00,
2013-09-14 04:42:00,44.4,41.7,30.15,NNE,29,2.0,8.0,90,0.00,,,0.00,Wunderground v.1.15,2013-09-14 09:42:00,
2013-09-14 04:44:00,44.2,41.7,30.15,NNE,29,1.0,8.0,91,0.00,,,0.00,Wunderground v.1.15,2013-09-14 09:44:00,
2013-09-14 04:48:00,44.1,41.9,30.15,NNE,29,1.0,8.0,92,0.00,,,0.00,Wunderground v.1.15,2013-09-14 09:48:00,
2013-09-14 04:50:00,44.1,41.9,30.15,NNE,29,1.0,8.0,92,0.00,,,0.00,Wunderground v.1.15,2013-09-14 09:50:00,
2013-09-14 04:52:00,44.3,42.4,30.15,NNE,29,1.0,8.0,93,0.00,,,0.00,Wunderground v.1.15,2013-09-14 09:52:00,
2013-09-14 04:54:00,44.3,42.1,30.15,NNE,29,1.0,8.0,92,0.00,,,0.00,Wunderground v.1.15,2013-09-14 09:54:00,
2013-09-14 04:58:00,44.2,42.0,30.15,NNE,29,1.0,8.0,92,0.00,,,0.00,Wunderground v.1.15,2013-09-14 09:58:00,
2013-09-14 05:00:00,44.2,42.0,30.15,NNE,29,2.0,8.0,92,0.00,,,0.00,Wunderground v.1.15,2013-09-14 10:00:00,
2013-09-14 05:04:00,44.6,43.0,30.15,NNE,29,2.0,8.0,94,0.00,,,0.00,Wunderground v.1.15,2013-09-14 10:04:00,
2013-09-14 05:06:00,44.6,42.7,30.15,NNE,29,2.0,8.0,93,0.00,,,0.00,Wunderground v.1.15,2013-09-14 10:06:00,
2013-09-14 05:10:00,44.4,42.2,30.15,NNE,23,1.0,8.0,92,0.00,,,0.00,Wunderground v.1.15,2013-09-14 10:10:00,
2013-09-14 05:12:00,44.1,41.6,30.15,NNE,18,1.0,8.0,91,0.00,,,0.00,Wunderground v.1.15,2013-09-14 10:12:00,
2013-09-14 05:16:00,43.7,41.5,30.15,NNE,18,2.0,8.0,92,0.00,,,0.00,Wunderground v.1.15,2013-09-14 10:16:00,
2013-09-14 05:18:00,43.6,41.4,30.16,NNE,18,2.0,8.0,92,0.00,,,0.00,Wunderground v.1.15,2013-09-14 10:18:00,
2013-09-14 05:20:00,43.6,41.4,30.15,NNE,18,2.0,8.0,92,0.00,,,0.00,Wunderground v.1.15,2013-09-14 10:20:00,
2013-09-14 05:22:00,43.4,41.2,30.16,NNE,18,2.0,8.0,92,0.00,,,0.00,Wunderground v.1.15,2013-09-14 10:22:00,
2013-09-14 05:24:00,43.2,41.0,30.16,NNE,18,2.0,8.0,92,0.00,,,0.00,Wunderground v.1.15,2013-09-14 10:24:00,
2013-09-14 05:26:00,43.1,40.9,30.16,NNE,18,2.0,8.0,92,0.00,,,0.00,Wunderground v.1.15,2013-09-14 10:26:00,
2013-09-14 05:28:00,43.0,40.8,30.16,NNE,15,2.0,8.0,92,0.00,,,0.00,Wunderground v.1.15,2013-09-14 10:28:00,
2013-09-14 05:30:00,42.9,40.7,30.16,North,6,2.0,8.0,92,0.00,,,0.00,Wunderground v.1.15,2013-09-14 10:30:00,
2013-09-14 05:34:00,42.8,40.6,30.16,North,9,2.0,8.0,92,0.00,,,0.00,Wunderground v.1.15,2013-09-14 10:34:00,
2013-09-14 05:36:00,42.7,40.5,30.16,North,9,2.0,8.0,92,0.00,,,0.00,Wunderground v.1.15,2013-09-14 10:36:00,
2013-09-14 05:38:00,42.6,40.4,30.16,North,8,2.0,8.0,92,0.00,,,0.00,Wunderground v.1.15,2013-09-14 10:38:00,
2013-09-14 05:42:00,42.4,40.2,30.16,North,358,2.0,8.0,92,0.00,,,0.00,Wunderground v.1.15,2013-09-14 10:42:00,
2013-09-14 05:44:00,42.5,40.6,30.16,North,358,2.0,8.0,93,0.00,,,0.00,Wunderground v.1.15,2013-09-14 10:44:00,
2013-09-14 05:48:00,42.5,40.6,30.16,North,358,2.0,8.0,93,0.00,,,0.00,Wunderground v.1.15,2013-09-14 10:48:00,
2013-09-14 05:54:00,43.0,41.4,30.16,North,360,2.0,8.0,94,0.00,,,0.00,Wunderground v.1.15,2013-09-14 10:54:00,
2013-09-14 05:58:00,43.2,41.6,30.16,North,1,2.0,8.0,94,0.00,,,0.00,Wunderground v.1.15,2013-09-14 10:58:00,
2013-09-14 06:00:00,43.2,41.6,30.16,North,4,2.0,8.0,94,0.00,,,0.00,Wunderground v.1.15,2013-09-14 11:00:00,
2013-09-14 06:02:00,43.3,41.7,30.16,North,4,2.0,8.0,94,0.00,,,0.00,Wunderground v.1.15,2013-09-14 11:02:00,
2013-09-14 06:06:00,43.4,41.8,30.16,North,4,2.0,8.0,94,0.00,,,0.00,Wunderground v.1.15,2013-09-14 11:06:00,
2013-09-14 06:08:00,43.5,42.2,30.16,North,4,2.0,8.0,95,0.00,,,0.00,Wunderground v.1.15,2013-09-14 11:08:00,
2013-09-14 06:14:00,43.6,42.3,30.16,North,4,1.0,8.0,95,0.00,,,0.00,Wunderground v.1.15,2013-09-14 11:14:00,
2013-09-14 06:16:00,43.6,42.3,30.16,North,4,1.0,8.0,95,0.00,,,0.00,Wunderground v.1.15,2013-09-14 11:16:00,
2013-09-14 06:20:00,43.6,42.3,30.16,North,4,1.0,8.0,95,0.00,,,0.00,Wunderground v.1.15,2013-09-14 11:20:00,
2013-09-14 06:22:00,43.6,42.3,30.16,North,4,1.0,8.0,95,0.00,,,0.00,Wunderground v.1.15,2013-09-14 11:22:00,
2013-09-14 06:26:00,43.9,42.6,30.16,North,4,1.0,8.0,95,0.00,,,0.00,Wunderground v.1.15,2013-09-14 11:26:00,
2013-09-14 06:28:00,43.8,42.5,30.16,North,4,2.0,8.0,95,0.00,,,0.00,Wunderground v.1.15,2013-09-14 11:28:00,
2013-09-14 06:34:00,43.9,42.6,30.16,North,4,2.0,8.0,95,0.00,,,0.00,Wunderground v.1.15,2013-09-14 11:34:00,
2013-09-14 06:36:00,43.9,42.6,30.16,North,4,1.0,8.0,95,0.00,,,0.00,Wunderground v.1.15,2013-09-14 11:36:00,
2013-09-14 06:38:00,43.8,42.5,30.16,North,4,1.0,8.0,95,0.00,,,0.00,Wunderground v.1.15,2013-09-14 11:38:00,
2013-09-14 06:42:00,43.9,42.6,30.16,North,4,1.0,8.0,95,0.00,,,0.00,Wunderground v.1.15,2013-09-14 11:42:00,
2013-09-14 06:44:00,43.9,42.6,30.16,North,4,1.0,8.0,95,0.00,,,0.00,Wunderground v.1.15,2013-09-14 11:44:00,
2013-09-14 06:46:00,43.9,42.6,30.16,North,4,1.0,8.0,95,0.00,,,0.00,Wunderground v.1.15,2013-09-14 11:46:00,
2013-09-14 06:48:00,44.1,42.8,30.16,North,4,1.0,8.0,95,0.00,,,0.00,Wunderground v.1.15,2013-09-14 11:48:00,
2013-09-14 06:50:00,44.3,43.0,30.16,North,5,1.0,8.0,95,0.00,,,0.00,Wunderground v.1.15,2013-09-14 11:50:00,
2013-09-14 06:52:00,44.5,43.2,30.16,NNE,20,1.0,8.0,95,0.00,,,0.00,Wunderground v.1.15,2013-09-14 11:52:00,
2013-09-14 06:54:00,44.7,43.4,30.16,NNE,20,1.0,8.0,95,0.00,,,0.00,Wunderground v.1.15,2013-09-14 11:54:00,
2013-09-14 06:56:00,45.0,43.7,30.16,NNE,20,1.0,8.0,95,0.00,,,0.00,Wunderground v.1.15,2013-09-14 11:56:00,
2013-09-14 06:58:00,45.4,44.3,30.16,NNE,20,1.0,8.0,96,0.00,,,0.00,Wunderground v.1.15,2013-09-14 11:58:00,
2013-09-14 07:04:00,46.0,44.4,30.16,NNE,30,1.0,8.0,94,0.00,,,0.00,Wunderground v.1.15,2013-09-14 12:04:00,
2013-09-14 07:06:00,46.1,44.5,30.17,NE,44,1.0,8.0,94,0.00,,,0.00,Wunderground v.1.15,2013-09-14 12:06:00,
2013-09-14 07:08:00,46.2,44.3,30.17,NE,44,1.0,8.0,93,0.00,,,0.00,Wunderground v.1.15,2013-09-14 12:08:00,
2013-09-14 07:12:00,46.5,44.6,30.16,NE,43,1.0,8.0,93,0.00,,,0.00,Wunderground v.1.15,2013-09-14 12:12:00,
2013-09-14 07:14:00,46.8,44.9,30.16,NE,43,1.0,8.0,93,0.00,,,0.00,Wunderground v.1.15,2013-09-14 12:14:00,
2013-09-14 07:16:00,47.1,45.2,30.17,ENE,59,0.0,8.0,93,0.00,,,0.00,Wunderground v.1.15,2013-09-14 12:16:00,
2013-09-14 07:18:00,47.3,45.4,30.16,East,82,0.0,8.0,93,0.00,,,0.00,Wunderground v.1.15,2013-09-14 12:18:00,
2013-09-14 07:20:00,47.5,45.3,30.16,ENE,68,1.0,8.0,92,0.00,,,0.00,Wunderground v.1.15,2013-09-14 12:20:00,
2013-09-14 07:22:00,47.6,45.4,30.16,ENE,77,1.0,8.0,92,0.00,,,0.00,Wunderground v.1.15,2013-09-14 12:22:00,
2013-09-14 07:24:00,47.6,45.4,30.17,East,89,1.0,8.0,92,0.00,,,0.00,Wunderground v.1.15,2013-09-14 12:24:00,
2013-09-14 07:26:00,47.7,45.5,30.17,East,86,2.0,8.0,92,0.00,,,0.00,Wunderground v.1.15,2013-09-14 12:26:00,
2013-09-14 07:28:00,47.9,45.7,30.17,ENE,78,2.0,8.0,92,0.00,,,0.00,Wunderground v.1.15,2013-09-14 12:28:00,
2013-09-14 07:34:00,48.2,46.0,30.17,East,88,2.0,8.0,92,0.00,,,0.00,Wunderground v.1.15,2013-09-14 12:34:00,
2013-09-14 07:36:00,48.4,46.2,30.17,ENE,75,2.0,8.0,92,0.00,,,0.00,Wunderground v.1.15,2013-09-14 12:36:00,
2013-09-14 07:38:00,48.5,46.3,30.17,ESE,102,2.0,8.0,92,0.00,,,0.00,Wunderground v.1.15,2013-09-14 12:38:00,
2013-09-14 07:42:00,48.9,46.7,30.17,ENE,70,2.0,8.0,92,0.00,,,0.00,Wunderground v.1.15,2013-09-14 12:42:00,
2013-09-14 07:46:00,49.4,46.9,30.17,East,79,2.0,8.0,91,0.00,,,0.00,Wunderground v.1.15,2013-09-14 12:46:00,
2013-09-14 07:48:00,49.7,47.2,30.17,East,79,2.0,8.0,91,0.00,,,0.00,Wunderground v.1.15,2013-09-14 12:48:00,
2013-09-14 07:50:00,49.9,47.4,30.17,ESE,105,2.0,8.0,91,0.00,,,0.00,Wunderground v.1.15,2013-09-14 12:50:00,
2013-09-14 07:52:00,50.2,47.7,30.17,East,88,3.0,8.0,91,0.00,,,0.00,Wunderground v.1.15,2013-09-14 12:52:00,
2013-09-14 07:54:00,50.5,48.0,30.17,East,84,3.0,8.0,91,0.00,,,0.00,Wunderground v.1.15,2013-09-14 12:54:00,
2013-09-14 07:56:00,50.8,48.0,30.17,ESE,114,3.0,8.0,90,0.00,,,0.00,Wunderground v.1.15,2013-09-14 12:56:00,
2013-09-14 08:00:00,51.4,48.6,30.17,SE,136,3.0,3.0,90,0.00,,,0.00,Wunderground v.1.15,2013-09-14 13:00:00,
2013-09-14 08:02:00,51.8,48.7,30.17,ESE,110,3.0,8.0,89,0.00,,,0.00,Wunderground v.1.15,2013-09-14 13:02:00,
2013-09-14 08:04:00,52.2,49.1,30.17,ESE,110,3.0,8.0,89,0.00,,,0.00,Wunderground v.1.15,2013-09-14 13:04:00,
2013-09-14 08:08:00,52.9,49.1,30.17,ESE,118,3.0,8.0,87,0.00,,,0.00,Wunderground v.1.15,2013-09-14 13:08:00,
2013-09-14 08:10:00,53.1,49.3,30.17,SSE,148,4.0,4.0,87,0.00,,,0.00,Wunderground v.1.15,2013-09-14 13:10:00,
2013-09-14 08:14:00,53.9,50.1,30.17,East,101,3.0,8.0,87,0.00,,,0.00,Wunderground v.1.15,2013-09-14 13:14:00,
2013-09-14 08:18:00,54.9,50.5,30.17,ESE,122,2.0,8.0,85,0.00,,,0.00,Wunderground v.1.15,2013-09-14 13:18:00,
2013-09-14 08:20:00,55.0,50.3,30.17,ESE,103,2.0,2.0,84,0.00,,,0.00,Wunderground v.1.15,2013-09-14 13:20:00,
2013-09-14 08:22:00,55.3,50.5,30.17,SE,127,2.0,8.0,84,0.00,,,0.00,Wunderground v.1.15,2013-09-14 13:22:00,
2013-09-14 08:28:00,56.1,50.3,30.17,SSW,197,3.0,8.0,81,0.00,,,0.00,Wunderground v.1.15,2013-09-14 13:28:00,
2013-09-14 08:30:00,56.4,51.0,30.17,ESE,105,3.0,8.0,82,0.00,,,0.00,Wunderground v.1.15,2013-09-14 13:30:00,
2013-09-14 08:32:00,56.6,50.2,30.17,SSW,204,3.0,8.0,79,0.00,,,0.00,Wunderground v.1.15,2013-09-14 13:32:00,
2013-09-14 08:34:00,56.7,50.6,30.17,SSE,153,3.0,8.0,80,0.00,,,0.00,Wunderground v.1.15,2013-09-14 13:34:00,
2013-09-14 08:36:00,57.1,51.0,30.17,South,183,3.0,8.0,80,0.00,,,0.00,Wunderground v.1.15,2013-09-14 13:36:00,
2013-09-14 08:40:00,57.2,50.4,30.18,SSW,199,3.0,8.0,78,0.00,,,0.00,Wunderground v.1.15,2013-09-14 13:40:00,
2013-09-14 08:42:00,57.4,50.6,30.18,SW,222,2.0,8.0,78,0.00,,,0.00,Wunderground v.1.15,2013-09-14 13:42:00,
2013-09-14 08:44:00,57.6,50.4,30.18,South,188,2.0,8.0,77,0.00,,,0.00,Wunderground v.1.15,2013-09-14 13:44:00,
2013-09-14 08:48:00,57.8,50.3,30.18,South,186,3.0,8.0,76,0.00,,,0.00,Wunderground v.1.15,2013-09-14 13:48:00,
2013-09-14 08:50:00,58.0,50.5,30.18,SE,139,3.0,8.0,76,0.00,,,0.00,Wunderground v.1.15,2013-09-14 13:50:00,
2013-09-14 08:54:00,58.3,50.0,30.18,SW,217,4.0,8.0,74,0.00,,,0.00,Wunderground v.1.15,2013-09-14 13:54:00,
2013-09-14 08:56:00,58.3,50.0,30.18,SSW,211,4.0,8.0,74,0.00,,,0.00,Wunderground v.1.15,2013-09-14 13:56:00,
2013-09-14 08:58:00,58.3,50.0,30.18,SSW,193,4.0,8.0,74,0.00,,,0.00,Wunderground v.1.15,2013-09-14 13:58:00,
2013-09-14 09:04:00,58.3,49.3,30.18,SW,214,5.0,8.0,72,0.00,,,0.00,Wunderground v.1.15,2013-09-14 14:04:00,
2013-09-14 09:06:00,58.3,49.3,30.18,South,183,5.0,8.0,72,0.00,,,0.00,Wunderground v.1.15,2013-09-14 14:06:00,
2013-09-14 09:08:00,58.4,49.4,30.18,SSW,205,6.0,8.0,72,0.00,,,0.00,Wunderground v.1.15,2013-09-14 14:08:00,
2013-09-14 09:10:00,58.4,49.4,30.18,SW,229,5.0,5.0,72,0.00,,,0.00,Wunderground v.1.15,2013-09-14 14:10:00,
2013-09-14 09:14:00,58.8,49.4,30.17,WSW,255,5.0,8.0,71,0.00,,,0.00,Wunderground v.1.15,2013-09-14 14:14:00,
2013-09-14 09:18:00,59.3,49.5,30.18,SW,229,4.0,8.0,70,0.00,,,0.00,Wunderground v.1.15,2013-09-14 14:18:00,
2013-09-14 09:20:00,59.4,49.2,30.18,SW,224,4.0,4.0,69,0.00,,,0.00,Wunderground v.1.15,2013-09-14 14:20:00,
2013-09-14 09:22:00,59.6,49.8,30.18,SW,214,4.0,6.0,70,0.00,,,0.00,Wunderground v.1.15,2013-09-14 14:22:00,
2013-09-14 09:24:00,59.7,49.5,30.18,SSW,204,4.0,7.0,69,0.00,,,0.00,Wunderground v.1.15,2013-09-14 14:24:00,
2013-09-14 09:28:00,60.3,50.1,30.18,SW,224,4.0,8.0,69,0.00,,,0.00,Wunderground v.1.15,2013-09-14 14:28:00,
2013-09-14 09:30:00,60.3,49.7,30.17,SW,224,4.0,8.0,68,0.00,,,0.00,Wunderground v.1.15,2013-09-14 14:30:00,
2013-09-14 09:34:00,60.1,49.5,30.17,SW,221,5.0,8.0,68,0.00,,,0.00,Wunderground v.1.15,2013-09-14 14:34:00,
2013-09-14 09:36:00,60.0,49.8,30.17,SW,218,5.0,8.0,69,0.00,,,0.00,Wunderground v.1.15,2013-09-14 14:36:00,
2013-09-14 09:38:00,59.9,49.7,30.17,SSW,211,6.0,8.0,69,0.00,,,0.00,Wunderground v.1.15,2013-09-14 14:38:00,
2013-09-14 09:40:00,60.1,49.9,30.18,WSW,248,5.0,8.0,69,0.00,,,0.00,Wunderground v.1.15,2013-09-14 14:40:00,
2013-09-14 09:42:00,60.2,50.0,30.18,SW,229,5.0,8.0,69,0.00,,,0.00,Wunderground v.1.15,2013-09-14 14:42:00,
2013-09-14 09:46:00,60.5,50.3,30.18,SW,222,5.0,8.0,69,0.00,,,0.00,Wunderground v.1.15,2013-09-14 14:46:00,
2013-09-14 09:48:00,60.6,50.0,30.18,SW,229,4.0,8.0,68,0.00,,,0.00,Wunderground v.1.15,2013-09-14 14:48:00,
2013-09-14 09:54:00,60.9,50.7,30.18,SSW,195,4.0,8.0,69,0.00,,,0.00,Wunderground v.1.15,2013-09-14 14:54:00,
2013-09-14 09:56:00,61.1,50.5,30.17,SSW,207,4.0,8.0,68,0.00,,,0.00,Wunderground v.1.15,2013-09-14 14:56:00,
2013-09-14 09:58:00,61.2,50.6,30.18,SSW,200,4.0,8.0,68,0.00,,,0.00,Wunderground v.1.15,2013-09-14 14:58:00,
2013-09-14 10:02:00,61.6,50.5,30.18,WSW,249,4.0,9.0,67,0.00,,,0.00,Wunderground v.1.15,2013-09-14 15:02:00,
2013-09-14 10:06:00,61.6,50.5,30.17,SSW,212,5.0,9.0,67,0.00,,,0.00,Wunderground v.1.15,2013-09-14 15:06:00,
2013-09-14 10:08:00,62.0,50.5,30.17,West,259,5.0,9.0,66,0.00,,,0.00,Wunderground v.1.15,2013-09-14 15:08:00,
2013-09-14 10:12:00,62.5,49.3,30.17,SSW,198,4.0,8.0,62,0.00,,,0.00,Wunderground v.1.15,2013-09-14 15:12:00,
2013-09-14 10:14:00,62.4,49.2,30.17,SSW,205,4.0,8.0,62,0.00,,,0.00,Wunderground v.1.15,2013-09-14 15:14:00,
2013-09-14 10:16:00,62.4,48.8,30.17,SW,221,4.0,8.0,61,0.00,,,0.00,Wunderground v.1.15,2013-09-14 15:16:00,
2013-09-14 10:18:00,62.6,49.4,30.17,SSE,163,4.0,8.0,62,0.00,,,0.00,Wunderground v.1.15,2013-09-14 15:18:00,
2013-09-14 10:20:00,62.8,49.1,30.17,South,191,5.0,5.0,61,0.00,,,0.00,Wunderground v.1.15,2013-09-14 15:20:00,
2013-09-14 10:24:00,63.0,48.9,30.17,ESE,112,4.0,8.0,60,0.00,,,0.00,Wunderground v.1.15,2013-09-14 15:24:00,
2013-09-14 10:26:00,63.3,49.2,30.17,South,177,4.0,8.0,60,0.00,,,0.00,Wunderground v.1.15,2013-09-14 15:26:00,
2013-09-14 10:30:00,63.7,49.5,30.17,SW,225,4.0,8.0,60,0.00,,,0.00,Wunderground v.1.15,2013-09-14 15:30:00,
2013-09-14 10:32:00,63.8,48.7,30.17,SSW,201,4.0,8.0,58,0.00,,,0.00,Wunderground v.1.15,2013-09-14 15:32:00,
2013-09-14 10:34:00,63.6,48.5,30.17,SW,217,4.0,8.0,58,0.00,,,0.00,Wunderground v.1.15,2013-09-14 15:34:00,
2013-09-14 10:40:00,63.7,48.6,30.17,West,259,5.0,5.0,58,0.00,,,0.00,Wunderground v.1.15,2013-09-14 15:40:00,
2013-09-14 10:42:00,63.7,48.2,30.17,West,269,4.0,8.0,57,0.00,,,0.00,Wunderground v.1.15,2013-09-14 15:42:00,
2013-09-14 10:44:00,63.9,48.8,30.17,WSW,253,5.0,8.0,58,0.00,,,0.00,Wunderground v.1.15,2013-09-14 15:44:00,
2013-09-14 10:48:00,63.9,48.4,30.17,SSW,210,5.0,8.0,57,0.00,,,0.00,Wunderground v.1.15,2013-09-14 15:48:00,
2013-09-14 10:50:00,64.2,48.2,30.17,SW,235,5.0,8.0,56,0.00,,,0.00,Wunderground v.1.15,2013-09-14 15:50:00,
2013-09-14 10:52:00,64.1,48.1,30.17,West,267,5.0,8.0,56,0.00,,,0.00,Wunderground v.1.15,2013-09-14 15:52:00,
2013-09-14 10:54:00,64.1,48.5,30.17,SSW,208,5.0,8.0,57,0.00,,,0.00,Wunderground v.1.15,2013-09-14 15:54:00,
2013-09-14 11:00:00,64.1,47.6,30.17,SW,229,5.0,8.0,55,0.00,,,0.00,Wunderground v.1.15,2013-09-14 16:00:00,
2013-09-14 11:04:00,64.6,48.1,30.17,SSW,208,4.0,8.0,55,0.00,,,0.00,Wunderground v.1.15,2013-09-14 16:04:00,
2013-09-14 11:06:00,64.9,48.8,30.17,South,172,4.0,8.0,56,0.00,,,0.00,Wunderground v.1.15,2013-09-14 16:06:00,
2013-09-14 11:08:00,65.2,48.1,30.17,WSW,244,4.0,8.0,54,0.00,,,0.00,Wunderground v.1.15,2013-09-14 16:08:00,
2013-09-14 11:12:00,65.3,48.2,30.16,South,188,4.0,8.0,54,0.00,,,0.00,Wunderground v.1.15,2013-09-14 16:12:00,
2013-09-14 11:14:00,65.4,47.8,30.16,SSW,197,3.0,8.0,53,0.00,,,0.00,Wunderground v.1.15,2013-09-14 16:14:00,
2013-09-14 11:16:00,65.6,48.0,30.16,SSW,195,3.0,8.0,53,0.00,,,0.00,Wunderground v.1.15,2013-09-14 16:16:00,
2013-09-14 11:18:00,66.1,48.5,30.16,WSW,249,3.0,8.0,53,0.00,,,0.00,Wunderground v.1.15,2013-09-14 16:18:00,
2013-09-14 11:20:00,66.3,48.1,30.16,SW,221,2.0,8.0,52,0.00,,,0.00,Wunderground v.1.15,2013-09-14 16:20:00,
2013-09-14 11:22:00,66.0,47.9,30.16,SW,214,3.0,8.0,52,0.00,,,0.00,Wunderground v.1.15,2013-09-14 16:22:00,
2013-09-14 11:24:00,66.0,47.3,30.16,South,181,4.0,8.0,51,0.00,,,0.00,Wunderground v.1.15,2013-09-14 16:24:00,
2013-09-14 11:26:00,66.1,47.4,30.16,East,83,4.0,8.0,51,0.00,,,0.00,Wunderground v.1.15,2013-09-14 16:26:00,
2013-09-14 11:30:00,66.0,47.3,30.16,West,269,5.0,5.0,51,0.00,,,0.00,Wunderground v.1.15,2013-09-14 16:30:00,
2013-09-14 11:32:00,66.1,46.9,30.16,SSW,194,4.0,8.0,50,0.00,,,0.00,Wunderground v.1.15,2013-09-14 16:32:00,
2013-09-14 11:34:00,66.1,46.9,30.16,SW,228,4.0,8.0,50,0.00,,,0.00,Wunderground v.1.15,2013-09-14 16:34:00,
2013-09-14 11:36:00,66.1,46.9,30.16,South,179,4.0,8.0,50,0.00,,,0.00,Wunderground v.1.15,2013-09-14 16:36:00,
2013-09-14 11:38:00,66.2,47.5,30.16,SSW,201,4.0,8.0,51,0.00,,,0.00,Wunderground v.1.15,2013-09-14 16:38:00,
2013-09-14 11:40:00,66.3,47.6,30.16,South,186,5.0,9.0,51,0.00,,,0.00,Wunderground v.1.15,2013-09-14 16:40:00,
2013-09-14 11:46:00,66.6,46.8,30.16,South,170,5.0,9.0,49,0.00,,,0.00,Wunderground v.1.15,2013-09-14 16:46:00,
2013-09-14 11:48:00,66.7,46.4,30.15,SSW,197,5.0,9.0,48,0.00,,,0.00,Wunderground v.1.15,2013-09-14 16:48:00,
2013-09-14 11:54:00,66.6,46.8,30.15,West,276,3.0,7.0,49,0.00,,,0.00,Wunderground v.1.15,2013-09-14 16:54:00,
2013-09-14 11:56:00,66.7,46.9,30.15,SW,218,3.0,8.0,49,0.00,,,0.00,Wunderground v.1.15,2013-09-14 16:56:00,
2013-09-14 11:58:00,67.0,46.7,30.15,SW,219,3.0,8.0,48,0.00,,,0.00,Wunderground v.1.15,2013-09-14 16:58:00,
2013-09-14 12:02:00,66.8,47.0,30.15,WNW,288,4.0,8.0,49,0.00,,,0.00,Wunderground v.1.15,2013-09-14 17:02:00,
2013-09-14 12:04:00,66.9,46.6,30.15,SSW,204,4.0,8.0,48,0.00,,,0.00,Wunderground v.1.15,2013-09-14 17:04:00,
2013-09-14 12:06:00,66.9,46.0,30.15,SW,232,3.0,8.0,47,0.00,,,0.00,Wunderground v.1.15,2013-09-14 17:06:00,
2013-09-14 12:10:00,67.1,46.2,30.15,SSW,207,3.0,3.0,47,0.00,,,0.00,Wunderground v.1.15,2013-09-14 17:10:00,
2013-09-14 12:12:00,67.3,45.8,30.15,SSW,193,3.0,4.0,46,0.00,,,0.00,Wunderground v.1.15,2013-09-14 17:12:00,
2013-09-14 12:14:00,67.3,45.8,30.15,East,89,4.0,8.0,46,0.00,,,0.00,Wunderground v.1.15,2013-09-14 17:14:00,
2013-09-14 12:16:00,67.4,45.3,30.15,SW,222,4.0,8.0,45,0.00,,,0.00,Wunderground v.1.15,2013-09-14 17:16:00,
2013-09-14 12:20:00,67.1,46.2,30.15,ENE,70,4.0,4.0,47,0.00,,,0.00,Wunderground v.1.15,2013-09-14 17:20:00,
2013-09-14 12:22:00,67.3,45.8,30.14,WSW,243,3.0,8.0,46,0.00,,,0.00,Wunderground v.1.15,2013-09-14 17:22:00,
2013-09-14 12:28:00,68.2,46.0,30.14,WSW,239,2.0,8.0,45,0.00,,,0.00,Wunderground v.1.15,2013-09-14 17:28:00,
2013-09-14 12:30:00,68.1,45.9,30.14,WSW,245,2.0,8.0,45,0.00,,,0.00,Wunderground v.1.15,2013-09-14 17:30:00,
2013-09-14 12:32:00,68.0,46.4,30.14,SW,232,3.0,8.0,46,0.00,,,0.00,Wunderground v.1.15,2013-09-14 17:32:00,
2013-09-14 12:38:00,68.1,44.7,30.14,SW,229,5.0,8.0,43,0.00,,,0.00,Wunderground v.1.15,2013-09-14 17:38:00,
2013-09-14 12:40:00,68.1,44.7,30.14,WNW,285,5.0,5.0,43,0.00,,,0.00,Wunderground v.1.15,2013-09-14 17:40:00,
2013-09-14 12:44:00,68.7,44.0,30.13,South,186,4.0,8.0,41,0.00,,,0.00,Wunderground v.1.15,2013-09-14 17:44:00,
2013-09-14 12:46:00,68.8,43.5,30.13,SSW,208,3.0,8.0,40,0.00,,,0.00,Wunderground v.1.15,2013-09-14 17:46:00,
2013-09-14 12:48:00,69.0,44.9,30.13,SSW,197,2.0,8.0,42,0.00,,,0.00,Wunderground v.1.15,2013-09-14 17:48:00,
2013-09-14 12:50:00,69.1,45.0,30.13,North,358,2.0,2.0,42,0.00,,,0.00,Wunderground v.1.15,2013-09-14 17:50:00,
2013-09-14 12:52:00,69.2,45.7,30.13,SSE,163,2.0,8.0,43,0.00,,,0.00,Wunderground v.1.15,2013-09-14 17:52:00,
2013-09-14 12:58:00,69.6,46.1,30.13,South,172,3.0,8.0,43,0.00,,,0.00,Wunderground v.1.15,2013-09-14 17:58:00,
2013-09-14 13:00:00,69.8,46.3,30.13,SW,217,3.0,8.0,43,0.00,,,0.00,Wunderground v.1.15,2013-09-14 18:00:00,
2013-09-14 13:02:00,69.9,45.1,30.13,WSW,249,4.0,8.0,41,0.00,,,0.00,Wunderground v.1.15,2013-09-14 18:02:00,
2013-09-14 13:06:00,69.6,44.8,30.12,NW,308,4.0,8.0,41,0.00,,,0.00,Wunderground v.1.15,2013-09-14 18:06:00,
2013-09-14 13:08:00,69.8,45.7,30.12,South,190,4.0,8.0,42,0.00,,,0.00,Wunderground v.1.15,2013-09-14 18:08:00,
2013-09-14 13:12:00,70.2,45.4,30.12,SW,223,3.0,9.0,41,0.00,,,0.00,Wunderground v.1.15,2013-09-14 18:12:00,
2013-09-14 13:14:00,70.1,45.3,30.12,SW,225,3.0,9.0,41,0.00,,,0.00,Wunderground v.1.15,2013-09-14 18:14:00,
2013-09-14 13:18:00,70.6,45.7,30.12,SSE,153,4.0,9.0,41,0.00,,,0.00,Wunderground v.1.15,2013-09-14 18:18:00,
2013-09-14 13:20:00,70.5,44.3,30.12,SW,236,4.0,4.0,39,0.00,,,0.00,Wunderground v.1.15,2013-09-14 18:20:00,
2013-09-14 13:22:00,70.5,45.0,30.11,SSW,203,3.0,8.0,40,0.00,,,0.00,Wunderground v.1.15,2013-09-14 18:22:00,
2013-09-14 13:24:00,70.4,44.9,30.11,WSW,240,3.0,8.0,40,0.00,,,0.00,Wunderground v.1.15,2013-09-14 18:24:00,
2013-09-14 13:26:00,70.3,44.8,30.11,West,260,4.0,8.0,40,0.00,,,0.00,Wunderground v.1.15,2013-09-14 18:26:00,
2013-09-14 13:28:00,70.3,44.8,30.11,WSW,252,4.0,8.0,40,0.00,,,0.00,Wunderground v.1.15,2013-09-14 18:28:00,
2013-09-14 13:30:00,70.2,44.7,30.11,West,260,5.0,5.0,40,0.00,,,0.00,Wunderground v.1.15,2013-09-14 18:30:00,
2013-09-14 13:34:00,70.2,45.4,30.11,SSW,207,5.0,8.0,41,0.00,,,0.00,Wunderground v.1.15,2013-09-14 18:34:00,
2013-09-14 13:36:00,70.4,44.9,30.11,SW,225,5.0,8.0,40,0.00,,,0.00,Wunderground v.1.15,2013-09-14 18:36:00,
2013-09-14 13:38:00,70.5,45.0,30.11,SSW,194,5.0,9.0,40,0.00,,,0.00,Wunderground v.1.15,2013-09-14 18:38:00,
2013-09-14 13:40:00,70.2,44.1,30.11,ESE,116,5.0,8.0,39,0.00,,,0.00,Wunderground v.1.15,2013-09-14 18:40:00,
2013-09-14 13:44:00,69.8,44.4,30.11,WSW,238,5.0,8.0,40,0.00,,,0.00,Wunderground v.1.15,2013-09-14 18:44:00,
2013-09-14 13:46:00,70.1,44.6,30.11,SW,229,4.0,8.0,40,0.00,,,0.00,Wunderground v.1.15,2013-09-14 18:46:00,
2013-09-14 13:49:00,70.7,45.2,30.11,East,87,3.0,8.0,40,0.00,,,0.00,Wunderground v.1.15,2013-09-14 18:49:00,
2013-09-14 13:54:00,70.6,45.7,30.10,SW,219,4.0,8.0,41,0.00,,,0.00,Wunderground v.1.15,2013-09-14 18:54:00,
2013-09-14 13:56:00,70.9,45.4,30.10,South,181,4.0,8.0,40,0.00,,,0.00,Wunderground v.1.15,2013-09-14 18:56:00,
2013-09-14 13:58:00,71.1,44.9,30.10,South,179,5.0,8.0,39,0.00,,,0.00,Wunderground v.1.15,2013-09-14 18:58:00,
2013-09-14 14:00:00,71.0,44.8,30.10,SSW,205,5.0,5.0,39,0.00,,,0.00,Wunderground v.1.15,2013-09-14 19:00:00,
2013-09-14 14:02:00,70.9,45.4,30.10,SW,214,5.0,8.0,40,0.00,,,0.00,Wunderground v.1.15,2013-09-14 19:02:00,
2013-09-14 14:04:00,71.0,45.5,30.09,South,184,4.0,8.0,40,0.00,,,0.00,Wunderground v.1.15,2013-09-14 19:04:00,
2013-09-14 14:08:00,71.7,45.4,30.09,SW,219,3.0,8.0,39,0.00,,,0.00,Wunderground v.1.15,2013-09-14 19:08:00,
2013-09-14 14:10:00,71.7,45.4,30.09,SSW,192,3.0,8.0,39,0.00,,,0.00,Wunderground v.1.15,2013-09-14 19:10:00,
2013-09-14 14:12:00,71.6,45.3,30.09,SW,221,3.0,8.0,39,0.00,,,0.00,Wunderground v.1.15,2013-09-14 19:12:00,
2013-09-14 14:14:00,71.6,45.3,30.09,SSE,160,3.0,10.0,39,0.00,,,0.00,Wunderground v.1.15,2013-09-14 19:14:00,
2013-09-14 14:16:00,71.7,45.4,30.09,East,89,4.0,10.0,39,0.00,,,0.00,Wunderground v.1.15,2013-09-14 19:16:00,
2013-09-14 14:18:00,71.5,44.5,30.09,East,95,4.0,10.0,38,0.00,,,0.00,Wunderground v.1.15,2013-09-14 19:18:00,
2013-09-14 14:20:00,71.7,46.1,30.09,SSW,197,5.0,8.0,40,0.00,,,0.00,Wunderground v.1.15,2013-09-14 19:20:00,
2013-09-14 14:22:00,72.0,45.0,30.08,SW,225,5.0,8.0,38,0.00,,,0.00,Wunderground v.1.15,2013-09-14 19:22:00,
2013-09-14 14:24:00,71.6,45.3,30.08,SW,217,4.0,8.0,39,0.00,,,0.00,Wunderground v.1.15,2013-09-14 19:24:00,
2013-09-14 14:30:00,71.8,44.8,30.08,SSW,194,3.0,8.0,38,0.00,,,0.00,Wunderground v.1.15,2013-09-14 19:30:00,
2013-09-14 14:34:00,72.3,44.6,30.08,East,92,4.0,8.0,37,0.00,,,0.00,Wunderground v.1.15,2013-09-14 19:34:00,
2013-09-14 14:36:00,72.0,44.3,30.08,SE,131,5.0,8.0,37,0.00,,,0.00,Wunderground v.1.15,2013-09-14 19:36:00,
2013-09-14 14:38:00,71.5,43.8,30.08,SE,131,7.0,8.0,37,0.00,,,0.00,Wunderground v.1.15,2013-09-14 19:38:00,
2013-09-14 14:42:00,71.4,44.5,30.07,SSW,201,7.0,10.0,38,0.00,,,0.00,Wunderground v.1.15,2013-09-14 19:42:00,
2013-09-14 14:44:00,71.6,44.6,30.07,East,91,7.0,10.0,38,0.00,,,0.00,Wunderground v.1.15,2013-09-14 19:44:00,
2013-09-14 14:48:00,72.2,45.2,30.07,South,173,5.0,10.0,38,0.00,,,0.00,Wunderground v.1.15,2013-09-14 19:48:00,
2013-09-14 14:50:00,72.1,45.8,30.07,SE,143,6.0,8.0,39,0.00,,,0.00,Wunderground v.1.15,2013-09-14 19:50:00,
2013-09-14 14:56:00,71.7,44.0,30.07,East,84,5.0,8.0,37,0.00,,,0.00,Wunderground v.1.15,2013-09-14 19:56:00,
2013-09-14 14:58:00,71.8,45.5,30.07,SSE,152,5.0,8.0,39,0.00,,,0.00,Wunderground v.1.15,2013-09-14 19:58:00,
2013-09-14 15:02:00,72.0,44.3,30.07,SW,221,4.0,9.0,37,0.00,,,0.00,Wunderground v.1.15,2013-09-14 20:02:00,
2013-09-14 15:04:00,72.0,45.0,30.07,SSW,197,4.0,9.0,38,0.00,,,0.00,Wunderground v.1.15,2013-09-14 20:04:00,
2013-09-14 15:06:00,72.1,45.1,30.07,ESE,122,4.0,9.0,38,0.00,,,0.00,Wunderground v.1.15,2013-09-14 20:06:00,
2013-09-14 15:08:00,71.9,44.2,30.06,SE,138,4.0,9.0,37,0.00,,,0.00,Wunderground v.1.15,2013-09-14 20:08:00,
2013-09-14 15:10:00,72.1,44.4,30.06,South,187,4.0,8.0,37,0.00,,,0.00,Wunderground v.1.15,2013-09-14 20:10:00,
2013-09-14 15:14:00,72.4,44.6,30.06,SSW,205,5.0,11.0,37,0.00,,,0.00,Wunderground v.1.15,2013-09-14 20:14:00,
2013-09-14 15:16:00,72.4,44.6,30.06,SSE,160,6.0,11.0,37,0.00,,,0.00,Wunderground v.1.15,2013-09-14 20:16:00,
2013-09-14 15:18:00,72.5,44.7,30.06,South,190,5.0,11.0,37,0.00,,,0.00,Wunderground v.1.15,2013-09-14 20:18:00,
2013-09-14 15:20:00,72.6,44.8,30.06,WSW,249,5.0,5.0,37,0.00,,,0.00,Wunderground v.1.15,2013-09-14 20:20:00,
2013-09-14 15:22:00,72.5,45.4,30.06,SW,236,5.0,8.0,38,0.00,,,0.00,Wunderground v.1.15,2013-09-14 20:22:00,
2013-09-14 15:24:00,72.7,46.3,30.06,SE,129,4.0,8.0,39,0.00,,,0.00,Wunderground v.1.15,2013-09-14 20:24:00,
2013-09-14 15:26:00,72.7,46.3,30.06,South,181,3.0,8.0,39,0.00,,,0.00,Wunderground v.1.15,2013-09-14 20:26:00,
2013-09-14 15:32:00,73.1,45.3,30.06,SSW,193,4.0,8.0,37,0.00,,,0.00,Wunderground v.1.15,2013-09-14 20:32:00,
2013-09-14 15:34:00,73.2,44.6,30.06,SSW,193,5.0,8.0,36,0.00,,,0.00,Wunderground v.1.15,2013-09-14 20:34:00,
2013-09-14 15:40:00,72.6,44.8,30.06,South,174,6.0,6.0,37,0.00,,,0.00,Wunderground v.1.15,2013-09-14 20:40:00,
2013-09-14 15:42:00,72.6,45.5,30.06,SW,225,5.0,8.0,38,0.00,,,0.00,Wunderground v.1.15,2013-09-14 20:42:00,
2013-09-14 15:44:00,72.7,45.6,30.06,SW,214,4.0,8.0,38,0.00,,,0.00,Wunderground v.1.15,2013-09-14 20:44:00,
2013-09-14 15:46:00,72.6,45.5,30.06,South,185,5.0,8.0,38,0.00,,,0.00,Wunderground v.1.15,2013-09-14 20:46:00,
2013-09-14 15:48:00,72.3,45.9,30.06,South,169,5.0,8.0,39,0.00,,,0.00,Wunderground v.1.15,2013-09-14 20:48:00,
2013-09-14 15:50:00,72.3,45.9,30.06,SSW,213,5.0,8.0,39,0.00,,,0.00,Wunderground v.1.15,2013-09-14 20:50:00,
2013-09-14 15:56:00,72.5,45.4,30.06,SSW,194,6.0,10.0,38,0.00,,,0.00,Wunderground v.1.15,2013-09-14 20:56:00,
2013-09-14 15:58:00,72.2,45.9,30.05,South,190,6.0,10.0,39,0.00,,,0.00,Wunderground v.1.15,2013-09-14 20:58:00,
2013-09-14 16:00:00,72.3,46.6,30.05,SSW,203,6.0,8.0,40,0.00,,,0.00,Wunderground v.1.15,2013-09-14 21:00:00,
2013-09-14 16:04:00,72.6,46.2,30.05,SE,128,6.0,8.0,39,0.00,,,0.00,Wunderground v.1.15,2013-09-14 21:04:00,
2013-09-14 16:06:00,72.9,47.2,30.05,South,184,5.0,8.0,40,0.00,,,0.00,Wunderground v.1.15,2013-09-14 21:06:00,
2013-09-14 16:08:00,73.2,46.1,30.05,South,181,5.0,8.0,38,0.00,,,0.00,Wunderground v.1.15,2013-09-14 21:08:00,
2013-09-14 16:12:00,73.3,46.2,30.05,SSW,212,6.0,8.0,38,0.00,,,0.00,Wunderground v.1.15,2013-09-14 21:12:00,
2013-09-14 16:14:00,73.6,46.4,30.05,South,188,6.0,8.0,38,0.00,,,0.00,Wunderground v.1.15,2013-09-14 21:14:00,
2013-09-14 16:16:00,74.0,46.8,30.04,South,188,5.0,8.0,38,0.00,,,0.00,Wunderground v.1.15,2013-09-14 21:16:00,
2013-09-14 16:20:00,74.2,47.0,30.04,South,188,4.0,8.0,38,0.00,,,0.00,Wunderground v.1.15,2013-09-14 21:20:00,
2013-09-14 16:22:00,74.2,46.2,30.04,SSE,160,5.0,8.0,37,0.00,,,0.00,Wunderground v.1.15,2013-09-14 21:22:00,
2013-09-14 16:24:00,73.7,45.8,30.04,South,177,6.0,8.0,37,0.00,,,0.00,Wunderground v.1.15,2013-09-14 21:24:00,
2013-09-14 16:26:00,73.3,46.2,30.04,SSE,160,7.0,8.0,38,0.00,,,0.00,Wunderground v.1.15,2013-09-14 21:26:00,
2013-09-14 16:30:00,73.1,45.3,30.04,SSW,193,8.0,8.0,37,0.00,,,0.00,Wunderground v.1.15,2013-09-14 21:30:00,
2013-09-14 16:32:00,73.2,44.6,30.04,WSW,243,8.0,8.0,36,0.00,,,0.00,Wunderground v.1.15,2013-09-14 21:32:00,
2013-09-14 16:38:00,73.2,44.6,30.04,SSE,148,6.0,8.0,36,0.00,,,0.00,Wunderground v.1.15,2013-09-14 21:38:00,
2013-09-14 16:40:00,73.1,44.5,30.04,ESE,105,6.0,6.0,36,0.00,,,0.00,Wunderground v.1.15,2013-09-14 21:40:00,
2013-09-14 16:46:00,72.7,44.2,30.03,SE,133,7.0,11.0,36,0.00,,,0.00,Wunderground v.1.15,2013-09-14 21:46:00,
2013-09-14 16:48:00,72.6,44.8,30.03,East,101,7.0,11.0,37,0.00,,,0.00,Wunderground v.1.15,2013-09-14 21:48:00,
2013-09-14 16:52:00,72.2,44.5,30.03,ESE,122,7.0,8.0,37,0.00,,,0.00,Wunderground v.1.15,2013-09-14 21:52:00,
2013-09-14 16:54:00,72.1,44.4,30.03,SE,131,6.0,8.0,37,0.00,,,0.00,Wunderground v.1.15,2013-09-14 21:54:00,
2013-09-14 16:58:00,72.0,44.3,30.04,ESE,122,5.0,8.0,37,0.00,,,0.00,Wunderground v.1.15,2013-09-14 21:58:00,
2013-09-14 17:00:00,71.9,43.5,30.04,South,187,5.0,5.0,36,0.00,,,0.00,Wunderground v.1.15,2013-09-14 22:00:00,
2013-09-14 17:02:00,71.7,44.0,30.04,ESE,113,5.0,8.0,37,0.00,,,0.00,Wunderground v.1.15,2013-09-14 22:02:00,
2013-09-14 17:04:00,71.6,43.9,30.04,ESE,113,5.0,8.0,37,0.00,,,0.00,Wunderground v.1.15,2013-09-14 22:04:00,
2013-09-14 17:08:00,71.3,43.7,30.04,East,97,5.0,10.0,37,0.00,,,0.00,Wunderground v.1.15,2013-09-14 22:08:00,
2013-09-14 17:10:00,71.3,43.7,30.04,SSE,157,6.0,6.0,37,0.00,,,0.00,Wunderground v.1.15,2013-09-14 22:10:00,
2013-09-14 17:12:00,71.5,43.1,30.04,South,183,5.0,8.0,36,0.00,,,0.00,Wunderground v.1.15,2013-09-14 22:12:00,
2013-09-14 17:14:00,71.6,43.2,30.04,ESE,108,6.0,8.0,36,0.00,,,0.00,Wunderground v.1.15,2013-09-14 22:14:00,
2013-09-14 17:16:00,71.8,42.7,30.04,SSW,200,6.0,8.0,35,0.00,,,0.00,Wunderground v.1.15,2013-09-14 22:16:00,
2013-09-14 17:18:00,72.1,42.9,30.04,SSE,148,6.0,8.0,35,0.00,,,0.00,Wunderground v.1.15,2013-09-14 22:18:00,
2013-09-14 17:20:00,72.1,43.7,30.03,ESE,117,6.0,8.0,36,0.00,,,0.00,Wunderground v.1.15,2013-09-14 22:20:00,
2013-09-14 17:22:00,72.0,42.8,30.03,SSE,148,6.0,8.0,35,0.00,,,0.00,Wunderground v.1.15,2013-09-14 22:22:00,
2013-09-14 17:24:00,72.0,43.6,30.03,SSE,165,7.0,8.0,36,0.00,,,0.00,Wunderground v.1.15,2013-09-14 22:24:00,
2013-09-14 17:28:00,72.0,43.6,30.03,SE,131,7.0,10.0,36,0.00,,,0.00,Wunderground v.1.15,2013-09-14 22:28:00,
2013-09-14 17:30:00,71.9,43.5,30.03,SE,131,7.0,7.0,36,0.00,,,0.00,Wunderground v.1.15,2013-09-14 22:30:00,
2013-09-14 17:32:00,71.9,43.5,30.03,SE,131,7.0,8.0,36,0.00,,,0.00,Wunderground v.1.15,2013-09-14 22:32:00,
2013-09-14 17:34:00,71.8,43.4,30.03,South,191,7.0,8.0,36,0.00,,,0.00,Wunderground v.1.15,2013-09-14 22:34:00,
2013-09-14 17:36:00,71.9,44.2,30.03,South,191,7.0,8.0,37,0.00,,,0.00,Wunderground v.1.15,2013-09-14 22:36:00,
2013-09-14 17:38:00,72.1,44.4,30.03,SSW,200,6.0,8.0,37,0.00,,,0.00,Wunderground v.1.15,2013-09-14 22:38:00,
2013-09-14 17:40:00,72.3,44.6,30.03,South,182,5.0,8.0,37,0.00,,,0.00,Wunderground v.1.15,2013-09-14 22:40:00,
2013-09-14 17:44:00,72.5,44.7,30.03,ESE,113,4.0,8.0,37,0.00,,,0.00,Wunderground v.1.15,2013-09-14 22:44:00,
2013-09-14 17:46:00,72.4,44.6,30.03,ESE,117,5.0,8.0,37,0.00,,,0.00,Wunderground v.1.15,2013-09-14 22:46:00,
2013-09-14 17:50:00,72.2,45.2,30.03,SSE,148,5.0,5.0,38,0.00,,,0.00,Wunderground v.1.15,2013-09-14 22:50:00,
2013-09-14 17:52:00,72.0,45.0,30.03,SSW,198,5.0,8.0,38,0.00,,,0.00,Wunderground v.1.15,2013-09-14 22:52:00,
2013-09-14 17:54:00,71.8,44.8,30.03,South,183,4.0,8.0,38,0.00,,,0.00,Wunderground v.1.15,2013-09-14 22:54:00,
2013-09-14 17:56:00,71.6,45.3,30.03,SSE,147,4.0,8.0,39,0.00,,,0.00,Wunderground v.1.15,2013-09-14 22:56:00,
2013-09-14 17:58:00,71.5,45.2,30.03,South,172,4.0,8.0,39,0.00,,,0.00,Wunderground v.1.15,2013-09-14 22:58:00,
2013-09-14 18:04:00,71.5,45.9,30.03,SSW,193,6.0,8.0,40,0.00,,,0.00,Wunderground v.1.15,2013-09-14 23:04:00,
2013-09-14 18:06:00,71.5,45.9,30.03,SSW,201,6.0,8.0,40,0.00,,,0.00,Wunderground v.1.15,2013-09-14 23:06:00,
2013-09-14 18:12:00,71.3,45.7,30.03,South,187,4.0,8.0,40,0.00,,,0.00,Wunderground v.1.15,2013-09-14 23:12:00,
2013-09-14 18:14:00,71.3,45.7,30.03,SSW,207,4.0,8.0,40,0.00,,,0.00,Wunderground v.1.15,2013-09-14 23:14:00,
2013-09-14 18:18:00,71.1,45.5,30.03,South,172,4.0,8.0,40,0.00,,,0.00,Wunderground v.1.15,2013-09-14 23:18:00,
2013-09-14 18:20:00,71.1,45.5,30.03,SSE,167,4.0,4.0,40,0.00,,,0.00,Wunderground v.1.15,2013-09-14 23:20:00,
2013-09-14 18:22:00,71.1,45.5,30.03,SSE,167,4.0,8.0,40,0.00,,,0.00,Wunderground v.1.15,2013-09-14 23:22:00,
2013-09-14 18:24:00,71.1,46.2,30.03,South,191,3.0,8.0,41,0.00,,,0.00,Wunderground v.1.15,2013-09-14 23:24:00,
2013-09-14 18:26:00,71.1,45.5,30.03,SW,218,3.0,8.0,40,0.00,,,0.00,Wunderground v.1.15,2013-09-14 23:26:00,
2013-09-14 18:30:00,70.8,45.3,30.03,South,173,4.0,8.0,40,0.00,,,0.00,Wunderground v.1.15,2013-09-14 23:30:00,
2013-09-14 18:32:00,70.6,45.1,30.03,South,190,4.0,8.0,40,0.00,,,0.00,Wunderground v.1.15,2013-09-14 23:32:00,
2013-09-14 18:34:00,70.2,44.7,30.03,South,188,4.0,8.0,40,0.00,,,0.00,Wunderground v.1.15,2013-09-14 23:34:00,
2013-09-14 18:36:00,69.9,44.5,30.03,SSW,194,4.0,8.0,40,0.00,,,0.00,Wunderground v.1.15,2013-09-14 23:36:00,
2013-09-14 18:38:00,69.6,44.8,30.03,SSW,196,4.0,8.0,41,0.00,,,0.00,Wunderground v.1.15,2013-09-14 23:38:00,
2013-09-14 18:42:00,68.9,44.9,30.03,SE,145,3.0,8.0,42,0.00,,,0.00,Wunderground v.1.15,2013-09-14 23:42:00,
2013-09-14 18:44:00,68.6,45.2,30.03,ESE,111,2.0,8.0,43,0.00,,,0.00,Wunderground v.1.15,2013-09-14 23:44:00,
2013-09-14 18:48:00,67.8,45.1,30.03,ESE,105,1.0,8.0,44,0.00,,,0.00,Wunderground v.1.15,2013-09-14 23:48:00,
2013-09-14 18:50:00,67.5,45.4,30.03,SSE,148,2.0,2.0,45,0.00,,,0.00,Wunderground v.1.15,2013-09-14 23:50:00,
2013-09-14 18:52:00,67.2,45.1,30.02,ESE,117,2.0,8.0,45,0.00,,,0.00,Wunderground v.1.15,2013-09-14 23:52:00,
2013-09-14 18:56:00,66.4,45.5,30.02,SE,142,2.0,8.0,47,0.00,,,0.00,Wunderground v.1.15,2013-09-14 23:56:00,
2013-09-14 18:58:00,66.1,45.3,30.02,ESE,115,2.0,8.0,47,0.00,,,0.00,Wunderground v.1.15,2013-09-14 23:58:00,
2013-09-14 19:00:00,65.8,45.6,30.02,ESE,111,3.0,8.0,48,0.00,,,0.00,Wunderground v.1.15,2013-09-15 00:00:00,
2013-09-14 19:02:00,65.5,45.3,30.02,SE,124,3.0,8.0,48,0.00,,,0.00,Wunderground v.1.15,2013-09-15 00:02:00,
2013-09-14 19:06:00,64.9,45.8,30.02,ESE,117,3.0,8.0,50,0.00,,,0.00,Wunderground v.1.15,2013-09-15 00:06:00,
2013-09-14 19:08:00,64.6,45.5,30.02,SE,126,3.0,8.0,50,0.00,,,0.00,Wunderground v.1.15,2013-09-15 00:08:00,
2013-09-14 19:10:00,64.5,45.4,30.02,SE,131,3.0,8.0,50,0.00,,,0.00,Wunderground v.1.15,2013-09-15 00:10:00,
2013-09-14 19:14:00,64.1,45.6,30.02,SE,125,3.0,8.0,51,0.00,,,0.00,Wunderground v.1.15,2013-09-15 00:14:00,
2013-09-14 19:16:00,63.9,45.9,30.02,ESE,119,3.0,8.0,52,0.00,,,0.00,Wunderground v.1.15,2013-09-15 00:16:00,
2013-09-14 19:18:00,63.7,45.7,30.02,SE,129,3.0,8.0,52,0.00,,,0.00,Wunderground v.1.15,2013-09-15 00:18:00,
2013-09-14 19:22:00,63.6,45.6,30.02,SE,128,4.0,8.0,52,0.00,,,0.00,Wunderground v.1.15,2013-09-15 00:22:00,
2013-09-14 19:24:00,63.6,45.6,30.02,ESE,117,4.0,8.0,52,0.00,,,0.00,Wunderground v.1.15,2013-09-15 00:24:00,
2013-09-14 19:26:00,63.5,45.6,30.02,SE,125,4.0,8.0,52,0.00,,,0.00,Wunderground v.1.15,2013-09-15 00:26:00,
2013-09-14 19:28:00,63.3,45.9,30.02,ESE,120,4.0,8.0,53,0.00,,,0.00,Wunderground v.1.15,2013-09-15 00:28:00,
2013-09-14 19:30:00,63.0,46.1,30.03,ESE,120,4.0,8.0,54,0.00,,,0.00,Wunderground v.1.15,2013-09-15 00:30:00,
2013-09-14 19:32:00,62.8,45.9,30.03,ESE,122,3.0,8.0,54,0.00,,,0.00,Wunderground v.1.15,2013-09-15 00:32:00,
2013-09-14 19:34:00,62.7,45.8,30.02,ESE,121,3.0,8.0,54,0.00,,,0.00,Wunderground v.1.15,2013-09-15 00:34:00,
2013-09-14 19:36:00,62.6,45.7,30.02,ESE,119,3.0,8.0,54,0.00,,,0.00,Wunderground v.1.15,2013-09-15 00:36:00,
2013-09-14 19:42:00,62.3,45.9,30.02,ESE,118,4.0,8.0,55,0.00,,,0.00,Wunderground v.1.15,2013-09-15 00:42:00,
2013-09-14 19:44:00,62.3,45.9,30.02,ESE,117,4.0,8.0,55,0.00,,,0.00,Wunderground v.1.15,2013-09-15 00:44:00,
2013-09-14 19:46:00,62.2,45.8,30.02,SE,127,5.0,8.0,55,0.00,,,0.00,Wunderground v.1.15,2013-09-15 00:46:00,
2013-09-14 19:48:00,62.1,45.7,30.02,ESE,122,5.0,8.0,55,0.00,,,0.00,Wunderground v.1.15,2013-09-15 00:48:00,
2013-09-14 19:52:00,61.9,46.0,30.01,ESE,107,5.0,8.0,56,0.00,,,0.00,Wunderground v.1.15,2013-09-15 00:52:00,
2013-09-14 19:54:00,61.7,45.8,30.01,ESE,113,5.0,8.0,56,0.00,,,0.00,Wunderground v.1.15,2013-09-15 00:54:00,
2013-09-14 19:56:00,61.7,45.8,30.01,SE,131,5.0,8.0,56,0.00,,,0.00,Wunderground v.1.15,2013-09-15 00:56:00,
2013-09-14 19:58:00,61.7,45.8,30.02,ESE,119,5.0,8.0,56,0.00,,,0.00,Wunderground v.1.15,2013-09-15 00:58:00,
2013-09-14 20:02:00,61.8,45.9,30.02,ESE,123,4.0,8.0,56,0.00,,,0.00,Wunderground v.1.15,2013-09-15 01:02:00,
2013-09-14 20:06:00,61.8,45.9,30.02,ESE,121,4.0,8.0,56,0.00,,,0.00,Wunderground v.1.15,2013-09-15 01:06:00,
2013-09-14 20:08:00,61.8,45.9,30.02,ESE,118,4.0,8.0,56,0.00,,,0.00,Wunderground v.1.15,2013-09-15 01:08:00,
2013-09-14 20:10:00,61.7,45.8,30.02,SE,146,4.0,8.0,56,0.00,,,0.00,Wunderground v.1.15,2013-09-15 01:10:00,
2013-09-14 20:12:00,61.7,45.8,30.02,ESE,119,4.0,8.0,56,0.00,,,0.00,Wunderground v.1.15,2013-09-15 01:12:00,
2013-09-14 20:18:00,61.4,46.0,30.02,ESE,118,4.0,8.0,57,0.00,,,0.00,Wunderground v.1.15,2013-09-15 01:18:00,
2013-09-14 20:20:00,61.3,45.9,30.02,ESE,122,4.0,4.0,57,0.00,,,0.00,Wunderground v.1.15,2013-09-15 01:20:00,
2013-09-14 20:22:00,61.2,45.8,30.02,ESE,113,4.0,8.0,57,0.00,,,0.00,Wunderground v.1.15,2013-09-15 01:22:00,
2013-09-14 20:24:00,61.1,46.2,30.02,ESE,120,4.0,8.0,58,0.00,,,0.00,Wunderground v.1.15,2013-09-15 01:24:00,
2013-09-14 20:28:00,60.9,46.0,30.02,ESE,120,4.0,8.0,58,0.00,,,0.00,Wunderground v.1.15,2013-09-15 01:28:00,
2013-09-14 20:34:00,60.6,46.2,30.02,ESE,116,4.0,8.0,59,0.00,,,0.00,Wunderground v.1.15,2013-09-15 01:34:00,
2013-09-14 20:38:00,60.5,46.1,30.02,ESE,123,3.0,8.0,59,0.00,,,0.00,Wunderground v.1.15,2013-09-15 01:38:00,
2013-09-14 20:40:00,60.5,46.5,30.02,ESE,117,3.0,8.0,60,0.00,,,0.00,Wunderground v.1.15,2013-09-15 01:40:00,
2013-09-14 20:42:00,60.5,46.1,30.02,ESE,115,3.0,8.0,59,0.00,,,0.00,Wunderground v.1.15,2013-09-15 01:42:00,
2013-09-14 20:44:00,60.4,46.4,30.02,ESE,113,3.0,8.0,60,0.00,,,0.00,Wunderground v.1.15,2013-09-15 01:44:00,
2013-09-14 20:48:00,60.1,46.2,30.02,ESE,110,4.0,8.0,60,0.00,,,0.00,Wunderground v.1.15,2013-09-15 01:48:00,
2013-09-14 20:52:00,60.1,46.6,30.02,East,91,4.0,8.0,61,0.00,,,0.00,Wunderground v.1.15,2013-09-15 01:52:00,
2013-09-14 20:54:00,60.1,46.6,30.02,ESE,113,4.0,8.0,61,0.00,,,0.00,Wunderground v.1.15,2013-09-15 01:54:00,
2013-09-14 20:56:00,60.0,46.5,30.02,ESE,109,4.0,8.0,61,0.00,,,0.00,Wunderground v.1.15,2013-09-15 01:56:00,
2013-09-14 20:58:00,60.0,46.5,30.02,ESE,120,4.0,8.0,61,0.00,,,0.00,Wunderground v.1.15,2013-09-15 01:58:00,
2013-09-14 21:00:00,60.0,46.5,30.02,ESE,120,4.0,8.0,61,0.00,,,0.00,Wunderground v.1.15,2013-09-15 02:00:00,
2013-09-14 21:02:00,60.0,46.5,30.02,ESE,119,4.0,8.0,61,0.00,,,0.00,Wunderground v.1.15,2013-09-15 02:02:00,
2013-09-14 21:04:00,60.0,46.5,30.02,ESE,112,4.0,8.0,61,0.00,,,0.00,Wunderground v.1.15,2013-09-15 02:04:00,
2013-09-14 21:06:00,60.1,46.6,30.02,ESE,113,4.0,8.0,61,0.00,,,0.00,Wunderground v.1.15,2013-09-15 02:06:00,
2013-09-14 21:08:00,60.1,46.6,30.02,SE,124,4.0,8.0,61,0.00,,,0.00,Wunderground v.1.15,2013-09-15 02:08:00,
2013-09-14 21:12:00,60.2,46.7,30.02,ESE,112,4.0,8.0,61,0.00,,,0.00,Wunderground v.1.15,2013-09-15 02:12:00,
2013-09-14 21:18:00,60.3,46.8,30.02,SSE,152,4.0,8.0,61,0.00,,,0.00,Wunderground v.1.15,2013-09-15 02:18:00,
2013-09-14 21:20:00,60.3,46.8,30.02,SE,128,4.0,4.0,61,0.00,,,0.00,Wunderground v.1.15,2013-09-15 02:20:00,
2013-09-14 21:24:00,60.2,46.7,30.02,ESE,120,4.0,8.0,61,0.00,,,0.00,Wunderground v.1.15,2013-09-15 02:24:00,
2013-09-14 21:26:00,60.1,46.6,30.02,SE,138,4.0,8.0,61,0.00,,,0.00,Wunderground v.1.15,2013-09-15 02:26:00,
2013-09-14 21:28:00,60.0,46.5,30.02,ESE,121,4.0,8.0,61,0.00,,,0.00,Wunderground v.1.15,2013-09-15 02:28:00,
2013-09-14 21:30:00,59.9,46.4,30.02,ESE,120,4.0,8.0,61,0.00,,,0.00,Wunderground v.1.15,2013-09-15 02:30:00,
2013-09-14 21:32:00,59.8,46.3,30.02,SSE,151,4.0,8.0,61,0.00,,,0.00,Wunderground v.1.15,2013-09-15 02:32:00,
2013-09-14 21:34:00,59.8,46.7,30.02,SE,124,4.0,8.0,62,0.00,,,0.00,Wunderground v.1.15,2013-09-15 02:34:00,
2013-09-14 21:40:00,59.7,46.7,30.01,ESE,113,5.0,8.0,62,0.00,,,0.00,Wunderground v.1.15,2013-09-15 02:40:00,
2013-09-14 21:42:00,59.7,46.7,30.01,ESE,115,5.0,8.0,62,0.00,,,0.00,Wunderground v.1.15,2013-09-15 02:42:00,
2013-09-14 21:44:00,59.7,46.7,30.01,SE,127,5.0,8.0,62,0.00,,,0.00,Wunderground v.1.15,2013-09-15 02:44:00,
2013-09-14 21:50:00,59.7,46.7,30.02,SE,140,5.0,5.0,62,0.00,,,0.00,Wunderground v.1.15,2013-09-15 02:50:00,
2013-09-14 21:54:00,59.5,46.5,30.01,SE,141,5.0,8.0,62,0.00,,,0.00,Wunderground v.1.15,2013-09-15 02:54:00,
2013-09-14 21:56:00,59.4,46.4,30.01,SE,124,4.0,8.0,62,0.00,,,0.00,Wunderground v.1.15,2013-09-15 02:56:00,
2013-09-14 21:58:00,59.3,46.7,30.01,ESE,117,5.0,8.0,63,0.00,,,0.00,Wunderground v.1.15,2013-09-15 02:58:00,
2013-09-14 22:02:00,59.1,46.5,30.01,ESE,118,5.0,8.0,63,0.00,,,0.00,Wunderground v.1.15,2013-09-15 03:02:00,
2013-09-14 22:04:00,59.1,46.5,30.01,SE,130,5.0,8.0,63,0.00,,,0.00,Wunderground v.1.15,2013-09-15 03:04:00,
2013-09-14 22:06:00,59.1,46.5,30.01,ESE,120,5.0,8.0,63,0.00,,,0.00,Wunderground v.1.15,2013-09-15 03:06:00,
2013-09-14 22:08:00,59.0,46.4,30.01,East,101,5.0,8.0,63,0.00,,,0.00,Wunderground v.1.15,2013-09-15 03:08:00,
2013-09-14 22:10:00,58.9,46.7,30.01,ESE,113,5.0,5.0,64,0.00,,,0.00,Wunderground v.1.15,2013-09-15 03:10:00,
2013-09-14 22:12:00,58.9,46.7,30.01,SSE,148,4.0,8.0,64,0.00,,,0.00,Wunderground v.1.15,2013-09-15 03:12:00,
2013-09-14 22:16:00,58.7,46.5,30.01,SE,128,4.0,8.0,64,0.00,,,0.00,Wunderground v.1.15,2013-09-15 03:16:00,
2013-09-14 22:18:00,58.6,46.5,30.01,SE,131,4.0,8.0,64,0.00,,,0.00,Wunderground v.1.15,2013-09-15 03:18:00,
2013-09-14 22:20:00,58.5,46.4,30.01,ESE,113,4.0,8.0,64,0.00,,,0.00,Wunderground v.1.15,2013-09-15 03:20:00,
2013-09-14 22:22:00,58.4,46.7,30.01,East,100,4.0,8.0,65,0.00,,,0.00,Wunderground v.1.15,2013-09-15 03:22:00,
2013-09-14 22:26:00,58.3,46.6,30.01,SE,132,4.0,8.0,65,0.00,,,0.00,Wunderground v.1.15,2013-09-15 03:26:00,
2013-09-14 22:28:00,58.2,46.5,30.01,SE,129,4.0,8.0,65,0.00,,,0.00,Wunderground v.1.15,2013-09-15 03:28:00,
2013-09-14 22:32:00,58.0,46.7,30.01,SE,128,3.0,8.0,66,0.00,,,0.00,Wunderground v.1.15,2013-09-15 03:32:00,
2013-09-14 22:34:00,57.8,46.5,30.01,SE,137,3.0,8.0,66,0.00,,,0.00,Wunderground v.1.15,2013-09-15 03:34:00,
2013-09-14 22:36:00,57.6,46.3,30.01,SE,124,2.0,8.0,66,0.00,,,0.00,Wunderground v.1.15,2013-09-15 03:36:00,
2013-09-14 22:38:00,57.6,46.7,30.01,ESE,120,2.0,8.0,67,0.00,,,0.00,Wunderground v.1.15,2013-09-15 03:38:00,
2013-09-14 22:44:00,57.4,46.5,30.01,SSE,150,3.0,8.0,67,0.00,,,0.00,Wunderground v.1.15,2013-09-15 03:44:00,
2013-09-14 22:46:00,57.3,46.4,30.01,SE,127,3.0,8.0,67,0.00,,,0.00,Wunderground v.1.15,2013-09-15 03:46:00,
2013-09-14 22:48:00,57.2,46.7,30.01,ESE,116,4.0,8.0,68,0.00,,,0.00,Wunderground v.1.15,2013-09-15 03:48:00,
2013-09-14 22:50:00,57.1,46.6,30.01,ESE,115,3.0,8.0,68,0.00,,,0.00,Wunderground v.1.15,2013-09-15 03:50:00,
2013-09-14 22:52:00,57.1,46.6,30.01,ESE,120,3.0,8.0,68,0.00,,,0.00,Wunderground v.1.15,2013-09-15 03:52:00,
2013-09-14 22:56:00,57.0,46.5,30.01,SE,136,3.0,8.0,68,0.00,,,0.00,Wunderground v.1.15,2013-09-15 03:56:00,
2013-09-14 22:58:00,57.0,46.5,30.01,SSE,163,3.0,8.0,68,0.00,,,0.00,Wunderground v.1.15,2013-09-15 03:58:00,
2013-09-14 23:02:00,56.9,46.8,30.01,ESE,121,3.0,8.0,69,0.00,,,0.00,Wunderground v.1.15,2013-09-15 04:02:00,
2013-09-14 23:08:00,56.9,46.8,30.01,ESE,121,4.0,8.0,69,0.00,,,0.00,Wunderground v.1.15,2013-09-15 04:08:00,
2013-09-14 23:10:00,56.9,46.8,30.01,SE,129,4.0,4.0,69,0.00,,,0.00,Wunderground v.1.15,2013-09-15 04:10:00,
2013-09-14 23:12:00,56.8,46.7,30.01,ESE,115,4.0,8.0,69,0.00,,,0.00,Wunderground v.1.15,2013-09-15 04:12:00,
2013-09-14 23:16:00,56.8,46.7,30.01,SE,125,3.0,8.0,69,0.00,,,0.00,Wunderground v.1.15,2013-09-15 04:16:00,
2013-09-14 23:18:00,56.8,46.7,30.01,SE,145,3.0,8.0,69,0.00,,,0.00,Wunderground v.1.15,2013-09-15 04:18:00,
2013-09-14 23:20:00,56.8,46.7,30.01,SSE,155,3.0,3.0,69,0.00,,,0.00,Wunderground v.1.15,2013-09-15 04:20:00,
2013-09-14 23:22:00,56.8,47.1,30.01,SE,131,3.0,8.0,70,0.00,,,0.00,Wunderground v.1.15,2013-09-15 04:22:00,
2013-09-14 23:24:00,56.7,47.0,30.01,SSE,148,3.0,8.0,70,0.00,,,0.00,Wunderground v.1.15,2013-09-15 04:24:00,
2013-09-14 23:26:00,56.7,47.0,30.01,ESE,110,3.0,8.0,70,0.00,,,0.00,Wunderground v.1.15,2013-09-15 04:26:00,
2013-09-14 23:28:00,56.8,47.1,30.01,ESE,121,3.0,8.0,70,0.00,,,0.00,Wunderground v.1.15,2013-09-15 04:28:00,
2013-09-14 23:30:00,56.8,47.1,30.01,SE,146,3.0,3.0,70,0.00,,,0.00,Wunderground v.1.15,2013-09-15 04:30:00,
2013-09-14 23:34:00,57.0,47.3,30.00,SE,125,3.0,8.0,70,0.00,,,0.00,Wunderground v.1.15,2013-09-15 04:34:00,
2013-09-14 23:36:00,57.0,47.3,30.00,SSE,153,3.0,8.0,70,0.00,,,0.00,Wunderground v.1.15,2013-09-15 04:36:00,
2013-09-14 23:38:00,57.1,47.4,30.00,SE,129,3.0,8.0,70,0.00,,,0.00,Wunderground v.1.15,2013-09-15 04:38:00,
2013-09-14 23:44:00,57.2,47.5,30.00,ESE,115,4.0,8.0,70,0.00,,,0.00,Wunderground v.1.15,2013-09-15 04:44:00,
2013-09-14 23:46:00,57.2,47.5,30.00,SSE,148,4.0,8.0,70,0.00,,,0.00,Wunderground v.1.15,2013-09-15 04:46:00,
2013-09-14 23:48:00,57.3,47.6,30.00,ESE,107,4.0,8.0,70,0.00,,,0.00,Wunderground v.1.15,2013-09-15 04:48:00,
2013-09-14 23:54:00,57.3,47.6,30.00,ESE,117,3.0,8.0,70,0.00,,,0.00,Wunderground v.1.15,2013-09-15 04:54:00,